Los Angeles

Airport
ICAO code: 
KLAX
IATA Code: 
LAX
Summary
ICAO Region: 
NAM
Territory: 
Location: 
Westchester, Los Angeles, California,
Serving: 
Los Angeles
Elevation: 
126 ft
Coordinates: 
Aerial View: 
33° 56' 36.715" N, 118° 24' 31.023" W
Airport LOS: 
Parallel Runway Operation
Metar
Observation
KLAX 260453Z 00000KT 10SM CLR 13/11 A3003 RMK AO2 SLP169 T01280106
Station
Los Angeles, Los Angeles International Airport
Date/Time
2022-01-26 04:53:00
Wind direction
Wind speed
00 kts
Lowest cloud amount
n/a
Temperature
12.8°C
Dew point
10.6°C
Humidity
86%
Weather condition
n/a

Description

Los Angeles International Airport is the primary airport serving Los Angeles, California. It is most often referred to by its IATA airport code LAX. LAX is located in southwestern Los Angeles in the neighborhood of Westchester, 26 km from the downtown core.

Climatology

Mediterranean climate or Dry-Summer Subtropical (Köppen climate classification Csa) - Summers are warm to hot and dry. Winters are mild and somewhat rainy. Spring and autumn bring mild days with cool evenings and are generally dry.

Runways

Designator Length Width Surface Rops
06L/24R 2720 46 CON Yes/Yes
06R/24L 3135 46 CON Yes/Yes
07R/25L 3382 61 CON Yes/Yes
07L/25R 3685 46 CON Yes/Yes

SKYbrary Partners:

Safety knowledge contributed by: